Showing default

NUSAT-54(BRANCA MARQUES), 68442

Orbit data source: Space-Track

NUSAT-54(BRANCA MARQUES), 68442 is a payload satellite owned by URUGUS S.A. (AR) in SSO that was launched on Mon, 30 Mar 2026 UTC via an FALCON 9 launch vehicle from the Air Force Western Test Range (AFWTR). Payload-class satellites include a variety of spacecraft equipped with specific instruments for various scientific and technological missions. These include communications satellites like Starlink; space stations such as the ISS; scientific satellites like the Hubble; Earth observation satellites from companies like Planet Labs, Umbra, and HawkEye 360; GPS; miniature CubeSats for education and research; and military/defense satellites.

Loading next visibility...
Identifier
68442, 2026-067AC
Orbit
SSO
Country
Flag of ARAR / ARGN
Related business
Manufacturer
URUGUS S.A.
Mission
Operational spacecraft
Bus & Motor
NEWSAT V, Unknown motor
Mass
41.5 kg wet, 38.5 kg dry
Launch date (UTC)
2026-03-30 (2 months ago)
Launch vehicle
FALCON 9
Launch site
Air Force Western Test Range (AFWTR)
Object type
Payload
Rocket body
Debris
Shape & HBR
Unknown shape, 1.1 m
Radar Cross Section
Medium (>0.1 m² and <1 m²)

Expand to show TLE details & history
Last TLE update: 3 days ago

TLE from 3 days ago
0 NUSAT-54(BRANCA MARQUES)
1 68442U 26067AC  26155.12120706  .00005683  00000-0  28588-3 0  9999
2 68442  97.4540 113.7032 0006283 107.4045 252.7876 15.17602644  9958
Epoch: 2026-06-04T02:54Z
TLE epoch observation values (Epoch: 2026-06-04T02:54:32.289Z)
Latitude
-0.00007°
Longitude
177.49865°
Altitude
517.458 km
Speed
7.604 km/s
True Right ascension
07h 34m 48s
True Declination
0° 00' 00"
Sunlit
Object was in daylight at epoch
Visualization orbit readout
Latitude
Unknown
Longitude
Unknown
Altitude
Unknown
Speed
Unknown
Apparent Right ascension
Unknown
Apparent Declination
Unknown
Sunlit
N/A
Visualization observer readout
Local Sidereal Time
03:15:42
Azimuth
Unknown
Elevation
Unknown
Doppler factor
Unknown
Orbital elements
Apogee altitude
514.387 km
Perigee altitude
505.732 km
Semi-major axis
6,888.197 km
Eccentricity
0.00063
Inclination
97.454°
RAAN
113.7032°
Arg. of periapsis
107.4045°
True anomaly
252.71884°
Mean anomaly
252.7876°
Eccentric anomaly
252.75322°
Mean motion
3.79651 °/min
Orbital period
94.82 mins
BSTAR
0.00028588
Loading maneuver chart data...
Computing Atmospheric mass density...
Loading historical data...
Loading historical data...
Loading historical data...
Loading historical data...
Loading historical data...
Loading historical data...
Loading historical data...

Documentation

Showing up to 5 results
|